Miscellaneous Local Product
Issued by NWS Hastings, NE

Home | Current Version | Previous Version | Graphics & Text | Print | Product List | Glossary On
Versions: 1 2 3 4 5 6 7 8 9 10 11 12 13 14 15 16 17 18 19 20 21 22 23 24 25 26 27 28 29 30 31 32 33 34 35 36 37 38 39 40 41 42 43 44 45 46 47 48 49 50
000
AXUS43 KGID 210602
MISGRI

GID CWA HOURLY WEATHER ROUNDUP
NATIONAL WEATHER SERVICE HASTINGS NE
100 AM CDT TUE OCT 21 2014

NOTE: "FAIR" INDICATES FEW OR NO CLOUDS BELOW 12,000 FEET WITH NO
SIGNIFICANT WEATHER AND/OR OBSTRUCTIONS TO VISIBILITY.

...SOUTH CENTRAL NEBRASKA...

CITY           SKY/WX    TMP DP  RH WIND       PRES   REMARKS
GRAND ISLAND   CLEAR     50  39  66 S7        30.06F
HASTINGS       CLEAR     55  39  54 S5        30.06F
KEARNEY        CLEAR     48  39  71 S7        30.07R
ORD            CLEAR     43  37  79 E3        30.04S
YORK           CLEAR     50  37  62 S6        30.07S
AURORA           N/A     50  37  60 S6        30.07R HAZE
LEXINGTON      CLEAR     52  42  67 S3        30.05F
HOLDREGE       CLEAR     51  41  67 CALM      30.06F
HEBRON         CLEAR     42  38  86 CALM      30.08R

...NEBRASKA PANHANDLE...

CITY           SKY/WX    TMP DP  RH WIND       PRES   REMARKS
CHADRON        LGT RAIN  65  38  36 S17       29.91F
ALLIANCE       CLEAR     46  39  76 S10       30.00F
SCOTTSBLUFF    CLEAR     60  40  47 SE10      29.99F
SIDNEY         CLEAR     50  41  71 S12       30.06F

...WESTERN AND NORTH CENTRAL NEBRASKA...

CITY           SKY/WX    TMP DP  RH WIND       PRES   REMARKS
VALENTINE      CLEAR     59  39  47 S15G29    29.97F
AINSWORTH      CLEAR     56  40  54 S12       29.99F
ONEILL         CLEAR     50  42  74 S7        30.03S
BROKEN BOW     CLEAR     43  38  82 CALM      30.04F
IMPERIAL       CLEAR     53  37  54 S7        30.07S
NORTH PLATTE   CLEAR     53  39  59 S7        30.05S
MCCOOK         CLEAR     56  40  55 SW9       30.06S

...EASTERN NEBRASKA...

CITY           SKY/WX    TMP DP  RH WIND       PRES   REMARKS
NORFOLK        CLEAR     44  35  70 SE3       30.05S
SO SIOUX CITY  CLEAR     38  36  92 CALM      30.07R
TEKAMAH        CLEAR     42  38  85 S3        30.06F
COLUMBUS       CLEAR     41  34  75 CALM      30.07S
ALBION         CLEAR     41  36  83 CALM      30.05F
OMAHA EPPLEY   CLEAR     45  43  93 CALM      30.07S
MILLARD        CLEAR     45  44  96 CALM      30.06F FOG
LINCOLN        CLEAR     39  36  89 CALM      30.08S
NEBRASKA CITY  CLEAR     57  32  38 CALM      30.07S
BEATRICE       CLEAR     42  37  83 CALM      30.07S
FALLS CITY     CLEAR     45  40  82 CALM      30.07R

...NORTHERN KANSAS...

CITY           SKY/WX    TMP DP  RH WIND       PRES   REMARKS
GOODLAND       CLEAR     52  40  63 S12       30.11S
HILL CITY      CLEAR     49  41  74 W5        30.08S
NORTON         CLEAR     54  39  58 SW5       30.07
PHILLIPSBURG   CLEAR     46  39  76 CALM      30.07S
BELOIT         CLEAR     45  43  93 CALM      30.06S
HAYS           CLEAR     52  41  66 W3        30.08S
RUSSELL        CLEAR     52  45  77 S10       30.06F
CONCORDIA      CLEAR     53  42  66 CALM      30.07S
SALINA         CLEAR     50  46  86 S3        30.07S
TOPEKA         FOG       46  44  93 CALM      30.07F VSB 3/4



USA.gov is the U.S. government's official web portal to all federal, state and local government web resources and services.